Regional Weather Roundup
Issued by NWS Nashville, TN

Current Version | Previous Version | Text Only | Print | Product List | Glossary On
Versions: 1 2 3 4 5 6 7 8 9 10 11 12 13 14 15 16 17 18 19 20 21 22 23 24 25 26 27 28 29 30 31 32 33 34 35 36 37 38 39 40 41 42 43 44 45 46 47 48 49 50
000
ASUS44 KOHX 020010
RWROHX
MIDDLE TENNESSEE HOURLY WEATHER ROUNDUP
NATIONAL WEATHER SERVICE NASHVILLE TN
700 PM CDT WED APR 01 2015

NOTE: "FAIR" INDICATES FEW OR NO CLOUDS BELOW 12,000 FEET WITH
NO SIGNIFICANT WEATHER AND/OR OBSTRUCTIONS TO VISIBILITY.

* THESE REPORTS ARE NOT UNDER NWS QUALITY CONTROL AND MAY NOT
  REPORT WEATHER SUCH AS PRECIPITATION AND FOG.


TNZ005>011-023>034-057-059-062>066-078-080-020100
...NORTHERN MIDDLE TENNESSEE...

CITY           SKY/WX    TMP DP  RH WIND       PRES   REMARKS
CLARKSVILLE    PTCLDY    66  39  37 E8        29.99S
CROSSVILLE     PTCLDY    65  24  21 SE5       30.08R
GALLATIN         N/A     71  33  24 CALM      30.03F
LIVINGSTON     PTCLDY    70  22  16 CALM      30.06R
NASHVILLE      MOCLDY    70  30  22 E6        30.02S
PORTLAND       PTCLDY    68  30  24 CALM      30.02S
SMYRNA         PTCLDY    70  31  23 CALM      30.03S
SPARTA         CLEAR     63  39  42 CALM        N/A
$$
TNZ056-058-060-061-075>077-079-093>097-020100
...SOUTHERN MIDDLE TENNESSEE...

CITY           SKY/WX    TMP DP  RH WIND       PRES   REMARKS
COLUMBIA       CLEAR     72  45  37 SE3       30.00R
LEWISBURG      PTCLDY    70  39  32 CALM      30.01S
MCMINNVILLE    CLEAR     66  37  34 CALM      30.04S
MURFREESBORO   PTCLDY    74  28  18 CALM      30.01S
SHELBYVILLE    CLEAR     72  39  30 CALM      30.04S
TULLAHOMA      CLEAR     72  30  21 CALM      30.05R
WINCHESTER     CLEAR     70  43  37 CALM      30.04R
$$


...KEY TO REMARKS...
VSB - VISIBILITY IN MILES
WCI - WIND CHILL INDEX
HX  - HEAT INDEX




USA.gov is the U.S. government's official web portal to all federal, state and local government web resources and services.